HST,Max TemperatureF,Mean TemperatureF,Min TemperatureF,Max Dew PointF,MeanDew PointF,Min DewpointF,Max Humidity, Mean Humidity, Min Humidity, Max Sea Level PressureIn, Mean Sea Level PressureIn, Min Sea Level PressureIn, Max VisibilityMiles, Mean VisibilityMiles, Min VisibilityMiles, Max Wind SpeedMPH, Mean Wind SpeedMPH, Max Gust SpeedMPH,PrecipitationIn, CloudCover, Events, WindDirDegrees
2013-1-1,80,72,63,67,63,56,93,80,67,30.12,30.06,30.00,10,9,3,12,6,14,0.00,3,,247
2013-1-2,80,71,62,64,60,56,84,69,54,30.09,30.04,29.99,10,10,10,10,4,12,T,4,,202
2013-1-3,80,72,64,63,61,57,87,71,54,30.10,30.04,29.99,10,10,10,10,5,14,T,4,,231
2013-1-4,77,72,66,67,64,61,90,82,73,30.17,30.12,30.06,10,8,2,16,6,21,0.83,7,Rain,293
2013-1-5,76,71,65,67,64,61,87,80,73,30.22,30.15,30.10,10,8,2,13,5,17,1.22,6,Rain-Thunderstorm,294
2013-1-6,75,70,64,68,65,60,87,78,69,30.21,30.13,30.09,10,8,1,18,6,26,1.52,7,Rain,250
2013-1-7,78,71,64,66,63,57,93,74,54,30.12,30.06,29.99,10,8,2,14,6,17,0.50,6,Rain,241
2013-1-8,78,70,62,67,62,51,93,77,60,30.03,29.99,29.94,10,8,2,17,6,20,0.89,6,Rain,275
2013-1-9,75,71,66,68,66,63,93,86,78,30.04,29.99,29.93,10,8,2,15,6,19,1.46,7,Rain,253
2013-1-10,80,72,64,66,64,60,93,76,58,30.05,29.99,29.94,10,9,2,22,5,27,0.81,6,Rain,258
2013-1-11,78,71,63,68,64,59,93,79,64,29.96,29.91,29.87,10,9,2,20,7,26,0.10,5,Rain,288
2013-1-12,81,73,64,69,64,57,90,75,60,30.01,29.95,29.88,10,10,9,20,8,26,T,4,Rain,182
2013-1-13,80,74,67,69,66,63,93,82,71,30.00,29.97,29.89,10,9,2,16,7,21,0.24,4,Rain,171
2013-1-14,84,75,65,69,65,59,90,73,55,29.99,29.94,29.84,10,10,10,21,7,26,0.00,4,,149
2013-1-15,78,72,65,69,66,61,97,82,67,29.94,29.91,29.87,10,8,2,10,4,14,0.09,7,Rain,280
2013-1-16,76,70,64,68,65,60,97,83,69,29.95,29.90,29.84,10,10,6,16,5,18,T,7,Rain,291
2013-1-17,78,72,65,64,62,59,84,71,58,29.92,29.88,29.82,10,10,10,14,4,17,T,7,Rain,261
2013-1-18,79,71,62,65,60,56,84,72,60,29.94,29.88,29.83,10,10,10,18,8,22,0.00,5,,305
2013-1-19,77,69,60,62,56,52,78,62,46,30.01,29.93,29.86,10,10,10,30,14,38,T,2,Rain,320
2013-1-20,78,70,62,59,56,53,68,58,47,30.06,30.00,29.95,10,10,10,25,14,33,0.00,2,,344
2013-1-21,78,70,62,59,57,54,73,60,47,30.15,30.09,30.03,10,10,10,17,10,23,T,3,,340
2013-1-22,79,69,58,64,59,53,84,66,48,30.14,30.10,30.05,10,10,6,15,8,22,0.02,3,Rain,348
2013-1-23,75,69,62,67,62,57,90,79,68,30.12,30.07,30.01,10,9,4,17,7,20,0.08,7,Rain,209
2013-1-24,79,73,66,64,63,60,93,77,60,30.12,30.08,30.04,10,9,3,16,7,21,0.32,8,Rain,191
2013-1-25,80,73,66,65,63,57,93,69,45,30.12,30.08,30.00,10,9,3,23,8,29,0.09,6,Rain,194
2013-1-26,79,72,64,64,61,58,84,69,54,30.08,30.03,29.97,10,10,9,21,8,26,T,4,Rain,194
2013-1-27,81,72,63,65,61,55,87,69,51,30.04,29.97,29.90,10,10,4,22,9,30,0.03,5,Rain,165
2013-1-28,84,72,59,64,59,53,84,64,43,30.00,29.94,29.86,10,10,10,17,7,23,T,4,Rain,176
2013-1-29,80,74,67,67,65,62,87,75,62,30.04,29.97,29.91,10,10,4,21,8,34,0.08,7,Rain,163
2013-1-30,78,73,67,68,67,64,93,81,69,30.07,30.03,29.99,10,10,7,15,4,19,0.03,8,Rain,133
2013-1-31,80,74,67,67,65,64,93,79,64,30.11,30.06,30.01,10,10,2,13,5,15,0.07,7,Rain,334